Weather History for North Padre Island, TX

Change the Weather History Date:

Wednesday, November 21, 2012

  Actual Average Record
Temperature  
Mean Temperature 74 °F -  
Max Temperature 75 °F - - ()
Min Temperature 73 °F - - ()
Cooling Degree Days 9    
Growing Degree Days 24 (Base 50)    
Moisture  
Dew Point 61 °F    
Average Humidity 62    
Maximum Humidity 69    
Minimum Humidity 53    
Precipitation  
Precipitation 0.00 in - - ()
Sea Level Pressure  
Sea Level Pressure 30.18 in    
Wind  
Wind Speed 11 mph (ENE)    
Max Wind Speed 16 mph    
Max Gust Speed 17 mph    
Visibility 9 miles    
Events      
T = Trace of Precipitation, MM = Missing Value Source: NWS Daily Summary

Daily Weather History Graph

Daily Weather History Graph

Search for Another Location

Airport:

Trip Planner

Search our weather history database for the weather conditions in past years. The results will help you decide how hot, cold, wet, or windy it might be!

Date:

Astronomy

Nov. 21, 2012 Rise Set
Actual Time 6:52 AM CST 5:35 PM CST
Civil Twilight 6:27 AM CST 5:59 PM CST
Nautical Twilight 5:59 AM CST 6:28 PM CST
Astronomical Twilight 5:31 AM CST 6:56 PM CST
Moon 1:21 PM CST (11/21) 12:46 AM CST (11/21)
Length of Visible Light 11h 32m
Length of Day
10h 42m
First Quarter, 62% of the Moon is Illuminated
Nov 21
First Quarter
Nov 28
Full
Dec 6
Last Quarter
Dec 13
New
Dec 19
First Quarter

Hourly Weather History & Observations

Time (CST) Temp. Dew Point Humidity Pressure Visibility Wind Dir Wind Speed Gust Speed Precip Events Conditions
12:15 AM 73.4 °F 60.8 °F 65% 30.18 in 9.0 mi ENE 6.9 mph - N/A   Clear
12:35 AM 73.4 °F 62.6 °F 69% 30.17 in 9.0 mi ENE 8.1 mph - N/A   Clear
12:55 AM 73.4 °F 62.6 °F 69% 30.17 in 9.0 mi NE 9.2 mph - N/A   Clear
1:15 AM 73.4 °F 62.6 °F 69% 30.17 in 10.0 mi NE 9.2 mph - N/A   Clear
1:35 AM 73.4 °F 62.6 °F 69% 30.16 in 9.0 mi ENE 9.2 mph - N/A   Clear
1:55 AM 73.4 °F 62.6 °F 69% 30.16 in 6.0 mi NE 10.4 mph - N/A   Haze
2:15 AM 73.4 °F 62.6 °F 69% 30.17 in 10.0 mi NE 10.4 mph - N/A   Clear
2:35 AM 73.4 °F 62.6 °F 69% 30.16 in 9.0 mi ENE 10.4 mph - N/A   Clear
2:55 AM 73.4 °F 62.6 °F 69% 30.16 in 10.0 mi NE 9.2 mph - N/A   Clear
3:15 AM 73.4 °F 62.6 °F 69% 30.16 in 6.0 mi NE 9.2 mph - N/A   Haze
3:35 AM 73.4 °F 62.6 °F 69% 30.16 in 10.0 mi NE 10.4 mph - N/A   Clear
3:55 AM 73.4 °F 62.6 °F 69% 30.16 in 9.0 mi NE 10.4 mph - N/A   Clear
4:15 AM 73.4 °F 62.6 °F 69% 30.17 in 8.0 mi NE 10.4 mph - N/A   Clear
4:35 AM 73.4 °F 62.6 °F 69% 30.17 in 9.0 mi NE 9.2 mph - N/A   Clear
4:55 AM 73.4 °F 60.8 °F 65% 30.17 in 10.0 mi NE 9.2 mph - N/A   Clear
5:15 AM 73.4 °F 60.8 °F 65% 30.17 in 10.0 mi NE 10.4 mph - N/A   Clear
5:35 AM 73.4 °F 62.6 °F 69% 30.17 in 10.0 mi NE 9.2 mph - N/A   Clear
5:55 AM 73.4 °F 62.6 °F 69% 30.18 in 10.0 mi NE 10.4 mph - N/A   Clear
6:15 AM 73.4 °F 62.6 °F 69% 30.18 in 7.0 mi NE 10.4 mph - N/A   Clear
6:35 AM 73.4 °F 62.6 °F 69% 30.19 in 9.0 mi NE 11.5 mph - N/A   Clear
6:55 AM 73.4 °F 62.6 °F 69% 30.20 in 9.0 mi NE 10.4 mph - N/A   Clear
7:15 AM 73.4 °F 60.8 °F 65% 30.20 in 9.0 mi NE 12.7 mph - N/A   Clear
7:35 AM 73.4 °F 60.8 °F 65% 30.20 in 6.0 mi NE 12.7 mph - N/A   Haze
7:55 AM 73.4 °F 62.6 °F 69% 30.21 in 9.0 mi NE 12.7 mph - N/A   Clear
8:15 AM 73.4 °F 60.8 °F 65% 30.22 in 9.0 mi NE 13.8 mph - N/A   Clear
8:35 AM 73.4 °F 60.8 °F 65% 30.22 in 6.0 mi NE 13.8 mph - N/A   Haze
8:55 AM 73.4 °F 60.8 °F 65% 30.23 in 9.0 mi NE 13.8 mph - N/A   Clear
9:15 AM 75.2 °F 59.0 °F 57% 30.23 in 9.0 mi NE 15.0 mph - N/A   Clear
9:35 AM 75.2 °F 60.8 °F 61% 30.23 in 6.0 mi NE 13.8 mph - N/A   Haze
9:55 AM 75.2 °F 60.8 °F 61% 30.24 in 7.0 mi NE 15.0 mph - N/A   Clear
10:15 AM 75.2 °F 60.8 °F 61% 30.24 in 6.0 mi NE 13.8 mph - N/A   Haze
10:35 AM 75.2 °F 60.8 °F 61% 30.24 in 9.0 mi NE 15.0 mph - N/A   Clear
10:55 AM 75.2 °F 60.8 °F 61% 30.23 in 9.0 mi NE 16.1 mph - N/A   Clear
11:15 AM 75.2 °F 60.8 °F 61% 30.23 in 8.0 mi NE 15.0 mph - N/A   Clear
11:35 AM 75.2 °F 60.8 °F 61% 30.22 in 7.0 mi NE 12.7 mph - N/A   Clear
11:55 AM 75.2 °F 60.8 °F 61% 30.21 in 9.0 mi NE 13.8 mph - N/A   Clear
12:15 PM 75.2 °F 60.8 °F 61% 30.21 in 9.0 mi ENE 13.8 mph - N/A   Clear
12:35 PM 75.2 °F 60.8 °F 61% 30.19 in 8.0 mi NE 15.0 mph - N/A   Clear
12:55 PM 75.2 °F 60.8 °F 61% 30.19 in 7.0 mi NE 13.8 mph - N/A   Clear
1:15 PM 75.2 °F 60.8 °F 61% 30.18 in 7.0 mi NE 13.8 mph - N/A   Clear
1:55 PM 75.2 °F 60.8 °F 61% 30.17 in 9.0 mi ENE 12.7 mph - N/A   Clear
2:15 PM 75.2 °F 60.8 °F 61% 30.16 in 6.0 mi NE 12.7 mph - N/A   Haze
2:35 PM 75.2 °F 60.8 °F 61% 30.16 in 9.0 mi NE 15.0 mph - N/A   Clear
2:55 PM 75.2 °F 60.8 °F 61% 30.15 in 8.0 mi ENE 15.0 mph - N/A   Clear
3:15 PM 75.2 °F 60.8 °F 61% 30.15 in 7.0 mi ENE 13.8 mph - N/A   Clear
3:35 PM 75.2 °F 60.8 °F 61% 30.15 in 7.0 mi ENE 13.8 mph - N/A   Clear
3:55 PM 75.2 °F 60.8 °F 61% 30.15 in 9.0 mi NE 15.0 mph - N/A   Partly Cloudy
4:15 PM 75.2 °F 60.8 °F 61% 30.15 in 9.0 mi ENE 13.8 mph - N/A   Partly Cloudy
4:35 PM 75.2 °F 59.0 °F 57% 30.15 in 8.0 mi ENE 13.8 mph - N/A   Clear
4:55 PM 75.2 °F 60.8 °F 61% 30.15 in 9.0 mi ENE 12.7 mph - N/A   Clear
5:15 PM 75.2 °F 59.0 °F 57% 30.15 in 8.0 mi ENE 12.7 mph - N/A   Clear
5:35 PM 75.2 °F 59.0 °F 57% 30.15 in 9.0 mi ENE 10.4 mph - N/A   Clear
5:55 PM 75.2 °F 59.0 °F 57% 30.16 in 10.0 mi ENE 13.8 mph - N/A   Scattered Clouds
6:15 PM 75.2 °F 59.0 °F 57% 30.16 in 9.0 mi ENE 12.7 mph - N/A   Scattered Clouds
6:35 PM 75.2 °F 57.2 °F 53% 30.17 in 9.0 mi ENE 12.7 mph - N/A   Scattered Clouds
6:55 PM 75.2 °F 59.0 °F 57% 30.18 in 9.0 mi ENE 11.5 mph - N/A   Partly Cloudy
7:15 PM 75.2 °F 60.8 °F 61% 30.18 in 10.0 mi ENE 10.4 mph - N/A   Partly Cloudy
7:35 PM 75.2 °F 59.0 °F 57% 30.18 in 10.0 mi ENE 11.5 mph - N/A   Clear
7:55 PM 75.2 °F 59.0 °F 57% 30.18 in 9.0 mi ENE 11.5 mph - N/A   Partly Cloudy
8:15 PM 75.2 °F 59.0 °F 57% 30.19 in 10.0 mi ENE 12.7 mph - N/A   Scattered Clouds
8:35 PM 75.2 °F 59.0 °F 57% 30.19 in 8.0 mi East 10.4 mph 17.3 mph N/A   Partly Cloudy
8:55 PM 75.2 °F 59.0 °F 57% 30.19 in 9.0 mi East 10.4 mph - N/A   Partly Cloudy
9:15 PM 75.2 °F 57.2 °F 53% 30.19 in 9.0 mi East 12.7 mph - N/A   Clear
9:35 PM 75.2 °F 57.2 °F 53% 30.19 in 8.0 mi ENE 11.5 mph - N/A   Clear
9:55 PM 75.2 °F 57.2 °F 53% 30.19 in 8.0 mi East 12.7 mph - N/A   Clear
10:15 PM 75.2 °F 59.0 °F 57% 30.19 in 10.0 mi East 10.4 mph - N/A   Clear
10:35 PM 75.2 °F 57.2 °F 53% 30.19 in 10.0 mi ESE 10.4 mph - N/A   Partly Cloudy
10:55 PM 75.2 °F 57.2 °F 53% 30.18 in 9.0 mi ESE 9.2 mph - N/A   Partly Cloudy
11:15 PM 73.4 °F 59.0 °F 61% 30.18 in 10.0 mi SE 9.2 mph - N/A   Mostly Cloudy
11:35 PM 73.4 °F 59.0 °F 61% 30.18 in 10.0 mi SE 8.1 mph - N/A   Mostly Cloudy
11:55 PM 73.4 °F 59.0 °F 61% 30.17 in 9.0 mi SE 9.2 mph - N/A   Scattered Clouds